User: anonymous   Login
Location: Unspecified
(0.0000°N, 0.0000°E)
Time: 11:34:20
(UTC+00:00)
Language:

APRIZESAT 8 - Orbit

View from above orbital plane
View from above orbital plane
View from above satellite
View from above satellite

Ground track
Ground track

The orbit data is extracted from the following two-line orbital elements,

1 39425U 13066K   17328.61462090 +.00000106 +00000-0 +19760-4 0  9992
2 39425 097.6088 004.9079 0053525 100.9638 259.7603 14.80994081216374
Epoch (UTC): 24 November 2017 14:45:03
Eccentricity: 0.0053525
inclination: 97.6088°
perigee height: 589 km
apogee height: 663 km
right ascension of ascending node: 4.9079°
argument of perigee: 100.9638°
revolutions per day: 14.80994081
mean anomaly at epoch: 259.7603°
orbit number at epoch: 21637

The dashed part of the orbit path shows where the satellite is in the earth's shadow,  

DLR